Time,TemperatureF,DewpointF,PressureIn,WindDirection,WindDirectionDegrees,WindSpeedMPH,WindSpeedGustMPH,Humidity,HourlyPrecipIn,Conditions,Clouds,dailyrainin,SoftwareType,DateUTC
2013-10-19 00:05:00,43.3,42.0,29.93,NW,315,0.0,0.0,93,0.00,,,0.00,weatherlink.com 1.10,2013-10-19 04:05:00,
2013-10-19 00:20:00,43.2,41.0,29.93,NW,315,0.0,0.0,93,0.00,,,0.00,weatherlink.com 1.10,2013-10-19 04:20:00,
2013-10-19 00:35:00,42.7,41.0,29.93,NW,315,0.0,0.0,93,0.00,,,0.00,weatherlink.com 1.10,2013-10-19 04:35:00,
2013-10-19 00:50:00,42.3,41.0,29.93,NW,315,0.0,0.0,94,0.00,,,0.00,weatherlink.com 1.10,2013-10-19 04:50:00,
2013-10-19 01:05:00,42.1,41.0,29.93,NW,315,0.0,0.0,94,0.00,,,0.00,weatherlink.com 1.10,2013-10-19 05:05:00,
2013-10-19 01:20:00,41.8,40.0,29.93,NW,315,0.0,0.0,94,0.00,,,0.00,weatherlink.com 1.10,2013-10-19 05:20:00,
2013-10-19 01:35:00,41.6,40.0,29.92,NW,315,0.0,0.0,94,0.00,,,0.00,weatherlink.com 1.10,2013-10-19 05:35:00,
2013-10-19 01:50:00,41.4,40.0,29.92,NW,315,0.0,0.0,95,0.00,,,0.00,weatherlink.com 1.10,2013-10-19 05:50:00,
2013-10-19 02:05:00,41.3,40.0,29.92,NW,315,0.0,0.0,95,0.00,,,0.00,weatherlink.com 1.10,2013-10-19 06:05:00,
2013-10-19 02:20:00,41.2,40.0,29.92,NW,315,0.0,0.0,95,0.00,,,0.00,weatherlink.com 1.10,2013-10-19 06:20:00,
2013-10-19 02:35:00,41.1,40.0,29.92,NW,315,0.0,0.0,95,0.00,,,0.00,weatherlink.com 1.10,2013-10-19 06:35:00,
2013-10-19 02:50:00,41.0,40.0,29.93,NW,315,0.0,1.0,96,0.00,,,0.00,weatherlink.com 1.10,2013-10-19 06:50:00,
2013-10-19 03:05:00,41.0,40.0,29.93,NW,315,0.0,0.0,96,0.00,,,0.00,weatherlink.com 1.10,2013-10-19 07:05:00,
2013-10-19 03:20:00,41.0,40.0,29.92,NW,315,0.0,0.0,96,0.00,,,0.00,weatherlink.com 1.10,2013-10-19 07:20:00,
2013-10-19 03:35:00,41.0,40.0,29.92,NW,315,0.0,0.0,96,0.00,,,0.00,weatherlink.com 1.10,2013-10-19 07:35:00,
2013-10-19 03:50:00,41.0,40.0,29.91,NW,315,0.0,0.0,96,0.00,,,0.00,weatherlink.com 1.10,2013-10-19 07:50:00,
2013-10-19 04:05:00,41.0,40.0,29.91,NW,315,0.0,0.0,96,0.00,,,0.00,weatherlink.com 1.10,2013-10-19 08:05:00,
2013-10-19 04:21:00,41.0,40.0,29.90,NW,315,0.0,0.0,96,0.00,,,0.00,weatherlink.com 1.10,2013-10-19 08:21:00,
2013-10-19 04:36:00,41.0,40.0,29.90,NW,315,0.0,0.0,96,0.00,,,0.00,weatherlink.com 1.10,2013-10-19 08:36:00,
2013-10-19 04:51:00,40.9,40.0,29.90,NW,315,0.0,0.0,96,0.00,,,0.00,weatherlink.com 1.10,2013-10-19 08:51:00,
2013-10-19 05:06:00,40.7,40.0,29.90,NW,315,0.0,0.0,96,0.00,,,0.00,weatherlink.com 1.10,2013-10-19 09:06:00,
2013-10-19 05:21:00,40.6,40.0,29.89,NW,315,0.0,0.0,96,0.00,,,0.00,weatherlink.com 1.10,2013-10-19 09:21:00,
2013-10-19 05:36:00,40.7,40.0,29.89,NW,315,0.0,0.0,97,0.00,,,0.00,weatherlink.com 1.10,2013-10-19 09:36:00,
2013-10-19 05:51:00,40.8,40.0,29.89,NW,315,0.0,0.0,97,0.00,,,0.00,weatherlink.com 1.10,2013-10-19 09:51:00,
2013-10-19 06:06:00,40.9,40.0,29.89,NW,315,0.0,0.0,97,0.00,,,0.00,weatherlink.com 1.10,2013-10-19 10:06:00,
2013-10-19 06:21:00,40.7,40.0,29.89,NW,315,0.0,0.0,96,0.00,,,0.00,weatherlink.com 1.10,2013-10-19 10:21:00,
2013-10-19 06:37:00,40.4,39.0,29.89,NW,315,0.0,0.0,96,0.00,,,0.00,weatherlink.com 1.10,2013-10-19 10:37:00,
2013-10-19 06:51:00,40.1,39.0,29.88,NW,315,0.0,0.0,96,0.00,,,0.00,weatherlink.com 1.10,2013-10-19 10:51:00,
2013-10-19 07:06:00,40.0,39.0,29.87,NW,315,0.0,0.0,96,0.00,,,0.00,weatherlink.com 1.10,2013-10-19 11:06:00,
2013-10-19 07:21:00,39.6,39.0,29.88,NW,315,0.0,0.0,96,0.00,,,0.00,weatherlink.com 1.10,2013-10-19 11:21:00,
2013-10-19 07:36:00,39.3,38.0,29.88,NW,315,0.0,0.0,96,0.00,,,0.00,weatherlink.com 1.10,2013-10-19 11:36:00,
2013-10-19 07:51:00,39.5,39.0,29.88,NW,315,0.0,0.0,97,0.00,,,0.00,weatherlink.com 1.10,2013-10-19 11:51:00,
2013-10-19 08:06:00,39.9,39.0,29.88,NW,315,0.0,0.0,97,0.00,,,0.00,weatherlink.com 1.10,2013-10-19 12:06:00,
2013-10-19 08:21:00,40.5,40.0,29.88,NW,315,0.0,0.0,98,0.00,,,0.00,weatherlink.com 1.10,2013-10-19 12:21:00,
2013-10-19 08:36:00,41.3,41.0,29.89,NW,315,0.0,0.0,98,0.00,,,0.00,weatherlink.com 1.10,2013-10-19 12:36:00,
2013-10-19 08:51:00,42.3,42.0,29.89,NW,315,0.0,0.0,98,0.00,,,0.00,weatherlink.com 1.10,2013-10-19 12:51:00,
2013-10-19 09:06:00,42.8,42.0,29.89,NW,315,0.0,0.0,98,0.00,,,0.00,weatherlink.com 1.10,2013-10-19 13:06:00,
2013-10-19 09:21:00,43.4,43.0,29.89,NW,315,0.0,1.0,97,0.00,,,0.00,weatherlink.com 1.10,2013-10-19 13:21:00,
2013-10-19 09:36:00,44.7,44.0,29.88,NW,315,0.0,0.0,97,0.00,,,0.00,weatherlink.com 1.10,2013-10-19 13:36:00,
2013-10-19 09:51:00,46.1,45.0,29.88,NW,315,1.0,2.0,96,0.00,,,0.00,weatherlink.com 1.10,2013-10-19 13:51:00,
2013-10-19 10:06:00,47.4,46.0,29.87,NW,313,1.0,2.0,93,0.00,,,0.00,weatherlink.com 1.10,2013-10-19 14:06:00,
2013-10-19 10:21:00,48.6,46.0,29.87,WNW,297,0.0,4.0,90,0.00,,,0.00,weatherlink.com 1.10,2013-10-19 14:21:00,
2013-10-19 10:36:00,49.7,46.0,29.86,WNW,302,0.0,3.0,87,0.00,,,0.00,weatherlink.com 1.10,2013-10-19 14:36:00,
2013-10-19 10:51:00,51.0,47.0,29.86,WNW,302,0.0,1.0,87,0.00,,,0.00,weatherlink.com 1.10,2013-10-19 14:51:00,
2013-10-19 11:06:00,52.2,48.0,29.85,NW,304,1.0,2.0,85,0.00,,,0.00,weatherlink.com 1.10,2013-10-19 15:06:00,
2013-10-19 11:21:00,53.2,49.0,29.85,WNW,300,0.0,3.0,85,0.00,,,0.00,weatherlink.com 1.10,2013-10-19 15:21:00,
2013-10-19 11:36:00,54.2,49.0,29.84,ESE,112,0.0,2.0,83,0.00,,,0.00,weatherlink.com 1.10,2013-10-19 15:36:00,
2013-10-19 11:51:00,55.3,51.0,29.84,ESE,108,0.0,1.0,84,0.00,,,0.00,weatherlink.com 1.10,2013-10-19 15:51:00,
2013-10-19 12:07:00,56.4,52.0,29.84,ESE,105,0.0,4.0,85,0.00,,,0.00,weatherlink.com 1.10,2013-10-19 16:07:00,
2013-10-19 12:22:00,57.5,52.0,29.83,East,83,0.0,2.0,83,0.00,,,0.00,weatherlink.com 1.10,2013-10-19 16:22:00,
2013-10-19 12:37:00,58.2,53.0,29.83,NE,54,2.0,3.0,83,0.00,,,0.00,weatherlink.com 1.10,2013-10-19 16:37:00,
2013-10-19 12:52:00,58.9,54.0,29.82,East,86,0.0,4.0,83,0.00,,,0.00,weatherlink.com 1.10,2013-10-19 16:52:00,
2013-10-19 13:07:00,58.9,53.0,29.80,East,93,1.0,4.0,82,0.00,,,0.00,weatherlink.com 1.10,2013-10-19 17:07:00,
2013-10-19 13:22:00,58.8,54.0,29.78,NE,53,0.0,5.0,83,0.00,,,0.00,weatherlink.com 1.10,2013-10-19 17:22:00,
2013-10-19 13:37:00,59.1,54.0,29.76,ENE,68,0.0,6.0,83,0.00,,,0.00,weatherlink.com 1.10,2013-10-19 17:37:00,
2013-10-19 13:52:00,59.1,54.0,29.74,SSE,151,3.0,9.0,82,0.00,,,0.00,weatherlink.com 1.10,2013-10-19 17:52:00,
2013-10-19 14:07:00,59.5,54.0,29.75,ENE,59,0.0,5.0,83,0.00,,,0.00,weatherlink.com 1.10,2013-10-19 18:07:00,
2013-10-19 14:22:00,59.7,55.0,29.74,NE,55,2.0,5.0,83,0.00,,,0.00,weatherlink.com 1.10,2013-10-19 18:22:00,
2013-10-19 14:37:00,60.4,55.0,29.74,East,96,0.0,4.0,82,0.00,,,0.00,weatherlink.com 1.10,2013-10-19 18:37:00,
2013-10-19 14:52:00,61.1,56.0,29.74,WSW,241,1.0,6.0,82,0.00,,,0.00,weatherlink.com 1.10,2013-10-19 18:52:00,
2013-10-19 15:07:00,61.4,56.0,29.74,North,355,0.0,2.0,81,0.00,,,0.00,weatherlink.com 1.10,2013-10-19 19:07:00,
2013-10-19 15:22:00,61.5,56.0,29.74,SSW,200,0.0,2.0,81,0.00,,,0.00,weatherlink.com 1.10,2013-10-19 19:22:00,
2013-10-19 15:37:00,61.7,55.0,29.73,East,92,0.0,3.0,79,0.00,,,0.00,weatherlink.com 1.10,2013-10-19 19:37:00,
2013-10-19 15:52:00,62.0,55.0,29.74,SE,138,0.0,2.0,79,0.00,,,0.00,weatherlink.com 1.10,2013-10-19 19:52:00,
2013-10-19 16:07:00,62.2,55.0,29.72,ENE,61,1.0,4.0,78,0.00,,,0.00,weatherlink.com 1.10,2013-10-19 20:07:00,
2013-10-19 16:22:00,62.5,56.0,29.72,East,98,0.0,4.0,78,0.00,,,0.00,weatherlink.com 1.10,2013-10-19 20:22:00,
2013-10-19 16:37:00,62.1,56.0,29.71,SE,142,1.0,3.0,79,0.00,,,0.00,weatherlink.com 1.10,2013-10-19 20:37:00,
2013-10-19 16:52:00,61.8,55.0,29.70,East,88,0.0,3.0,79,0.00,,,0.00,weatherlink.com 1.10,2013-10-19 20:52:00,
2013-10-19 17:07:00,61.5,56.0,29.70,SSE,152,0.0,2.0,81,0.00,,,0.00,weatherlink.com 1.10,2013-10-19 21:07:00,
2013-10-19 17:22:00,61.3,55.0,29.71,ENE,61,0.0,3.0,81,0.00,,,0.00,weatherlink.com 1.10,2013-10-19 21:22:00,
2013-10-19 17:37:00,61.3,56.0,29.71,ENE,61,0.0,1.0,82,0.00,,,0.00,weatherlink.com 1.10,2013-10-19 21:37:00,
2013-10-19 17:52:00,61.2,56.0,29.71,ENE,62,0.0,1.0,82,0.00,,,0.00,weatherlink.com 1.10,2013-10-19 21:52:00,
2013-10-19 18:07:00,61.0,56.0,29.73,WNW,298,3.0,5.0,83,0.00,,,0.00,weatherlink.com 1.10,2013-10-19 22:07:00,
2013-10-19 18:22:00,58.9,55.0,29.74,WNW,289,3.0,10.0,87,0.01,,,0.01,weatherlink.com 1.10,2013-10-19 22:22:00,
2013-10-19 18:37:00,57.4,54.0,29.73,WNW,298,2.0,6.0,89,0.01,,,0.01,weatherlink.com 1.10,2013-10-19 22:37:00,
2013-10-19 18:52:00,56.9,54.0,29.74,NW,306,0.0,4.0,90,0.01,,,0.01,weatherlink.com 1.10,2013-10-19 22:52:00,
2013-10-19 19:07:00,56.6,54.0,29.74,NW,306,0.0,0.0,91,0.01,,,0.01,weatherlink.com 1.10,2013-10-19 23:07:00,
2013-10-19 19:22:00,56.2,54.0,29.75,NW,306,0.0,0.0,92,0.00,,,0.01,weatherlink.com 1.10,2013-10-19 23:22:00,
2013-10-19 19:37:00,55.4,53.0,29.75,North,5,0.0,2.0,91,0.00,,,0.01,weatherlink.com 1.10,2013-10-19 23:37:00,
2013-10-19 19:52:00,54.9,52.0,29.76,NW,310,1.0,3.0,91,0.00,,,0.01,weatherlink.com 1.10,2013-10-19 23:52:00,
2013-10-19 20:07:00,54.1,51.0,29.76,NW,310,0.0,0.0,88,0.00,,,0.01,weatherlink.com 1.10,2013-10-20 00:07:00,
2013-10-19 20:22:00,53.3,50.0,29.76,NW,310,0.0,1.0,89,0.00,,,0.01,weatherlink.com 1.10,2013-10-20 00:22:00,
2013-10-19 20:37:00,52.8,50.0,29.77,North,5,0.0,2.0,90,0.00,,,0.01,weatherlink.com 1.10,2013-10-20 00:37:00,
2013-10-19 20:52:00,52.4,49.0,29.77,North,5,0.0,0.0,88,0.00,,,0.01,weatherlink.com 1.10,2013-10-20 00:52:00,
2013-10-19 21:07:00,53.0,48.0,29.77,NW,310,0.0,6.0,82,0.00,,,0.01,weatherlink.com 1.10,2013-10-20 01:07:00,
2013-10-19 21:22:00,53.8,48.0,29.78,NW,310,0.0,2.0,81,0.00,,,0.01,weatherlink.com 1.10,2013-10-20 01:22:00,
2013-10-19 21:38:00,53.8,48.0,29.78,NW,307,0.0,10.0,80,0.00,,,0.01,weatherlink.com 1.10,2013-10-20 01:38:00,
2013-10-19 21:52:00,53.3,47.0,29.79,NW,308,0.0,0.0,80,0.00,,,0.01,weatherlink.com 1.10,2013-10-20 01:52:00,
2013-10-19 22:07:00,52.3,47.0,29.79,NW,319,0.0,2.0,81,0.00,,,0.01,weatherlink.com 1.10,2013-10-20 02:07:00,
2013-10-19 22:22:00,53.0,46.0,29.80,WNW,296,2.0,5.0,77,0.00,,,0.01,weatherlink.com 1.10,2013-10-20 02:22:00,
2013-10-19 22:38:00,53.7,46.0,29.80,NW,310,4.0,9.0,75,0.00,,,0.01,weatherlink.com 1.10,2013-10-20 02:38:00,
2013-10-19 22:53:00,54.1,46.0,29.81,NW,306,3.0,12.0,74,0.00,,,0.01,weatherlink.com 1.10,2013-10-20 02:53:00,
2013-10-19 23:08:00,54.1,46.0,29.81,WNW,295,4.0,8.0,73,0.00,,,0.01,weatherlink.com 1.10,2013-10-20 03:08:00,
2013-10-19 23:23:00,54.2,46.0,29.82,WNW,300,3.0,11.0,73,0.00,,,0.01,weatherlink.com 1.10,2013-10-20 03:23:00,
2013-10-19 23:38:00,53.9,44.0,29.83,NW,306,4.0,9.0,69,0.00,,,0.01,weatherlink.com 1.10,2013-10-20 03:38:00,
2013-10-19 23:53:00,53.5,44.0,29.83,West,280,8.0,9.0,69,0.00,,,0.01,weatherlink.com 1.10,2013-10-20 03:53:00,